Temperature
16 16 16 16 15 15 15 15 15 15 15 14 14 14 14 14 14 14 14 14 14 13 13 13 13 13 13 13 12 12 12 12 12 12 11 11 11 11 11 11 11 11 10
16 16 16 15 15 15 15 15 15 15 15 14 14 14 14 14 14 14 14 14 14 13 13 13 13 13 13 13 12 12 12 12 12 12 11 11 11 11 11 10 10 10 10
16 16 15 15 15 15 15 15 15 15 15 14 14 14 14 14 14 14 14 14 13 13 13 13 13 13 13 12 12 12 12 12 12 12 11 11 11 11 10 10 10 10 10
15 15 15 15 15 15 15 15 15 14 14 14 14 14 14 14 14 14 14 13 13 13 13 13 13 13 13 12 12 12 12 12 12 11 11 11 11 10 10 10 10 10 10
15 15 15 15 15 15 15 14 14 14 14 14 14 14 14 14 14 13 13 13 13 13 13 13 13 13 13 12 12 12 12 12 12 11 11 11 11 11 11 10 10 10 10
15 15 15 15 14 14 14 14 14 14 14 14 14 14 13 13 13 13 13 13 13 13 13 13 13 13 12 12 12 12 12 12 12 12 11 11 11 11 11 10 10 10 9
15 15 14 14 14 14 14 14 14 14 14 14 13 13 13 13 13 13 13 13 13 13 13 12 12 12 12 12 12 12 12 12 12 11 11 11 11 11 11 10 10 10 10
14 14 14 14 14 14 14 14 13 13 13 13 13 13 13 13 13 13 13 12 12 12 12 12 12 12 12 12 12 12 12 11 11 11 11 11 11 10 10 10 10 10 9
14 14 14 13 13 13 13 13 13 13 13 13 13 13 12 12 12 12 12 12 12 12 12 12 12 12 12 11 11 11 11 11 11 11 11 10 10 10 10 9 9 9 9
13 13 13 13 13 13 13 13 13 12 12 12 12 12 12 12 12 12 12 12 12 12 12 11 11 11 11 11 11 11 11 11 11 11 10 10 10 10 9 9 9 9 9
13 13 13 12 12 12 12 12 12 12 12 12 12 12 12 12 11 11 11 11 11 11 11 11 11 11 11 11 11 11 11 11 10 10 10 10 10 10 9 9 9 9 9
12 12 12 12 12 12 12 12 12 11 11 11 11 11 11 11 11 11 11 11 11 11 11 11 11 11 11 10 10 10 10 10 10 10 10 10 10 9 9 9 9 9 9
12 12 12 12 12 11 11 11 11 11 11 11 11 11 11 11 11 11 10 10 10 10 10 10 10 10 10 10 10 10 10 10 10 10 10 10 9 9 9 9 9 8 8
11 11 11 11 11 11 11 11 11 11 10 10 10 10 10 10 10 10 10 10 10 10 10 10 10 10 10 9 9 9 9 9 9 9 9 9 9 9 9 9 8 8 8
10 10 10 10 10 10 10 10 10 10 10 10 10 10 10 10 10 10 10 10 10 10 9 9 9 9 9 9 9 9 9 9 9 9 9 9 9 9 9 8 8 8 8
10 9 9 9 9 9 10 10 9 9 9 9 9 9 9 9 9 9 9 9 9 9 9 9 9 9 9 9 9 9 8 8 8 8 8 8 8 8 8 8 8 8 8
9 9 9 9 9 9 9 9 9 9 9 9 9 9 9 9 9 9 9 9 9 8 8 8 8 8 8 8 8 8 8 8 8 8 8 8 8 8 8 8 7 7 7
8 8 8 8 8 8 8 8 8 8 8 8 8 8 8 8 8 8 8 8 8 8 8 8 8 8 8 7 7 7 7 7 7 7 7 7 7 7 7 7 7 7 7
8 8 8 8 8 8 7 7 7 7 7 7 7 8 8 8 8 8 8 8 8 8 8 7 7 7 7 7 7 7 7 7 7 7 7 7 6 6 7 7 7 7 6
7 7 7 7 7 7 7 7 7 7 7 7 7 7 7 7 7 7 7 7 7 7 7 7 7 7 7 6 6 6 6 6 6 6 6 6 6 6 6 6 6 6 6
6 6 6 6 6 6 6 6 6 6 6 6 6 6 6 6 6 6 7 7 6 6 6 6 6 6 6 6 6 6 6 6 6 5 6 5 5 5 5 5 5 5 5
5 5 5 5 6 6 6 6 6 6 6 6 6 6 6 6 6 6 6 6 6 6 6 6 6 6 6 6 6 5 5 5 5 5 5 5 5 5 5 5 5 5 5
5 5 5 5 5 5 5 5 5 5 5 5 5 5 5 5 5 5 5 6 5 5 5 5 5 5 5 5 5 5 5 5 5 5 5 5 5 5 5 5 5 4 4
4 4 4 4 4 4 4 4 4 5 5 5 5 5 5 5 5 5 5 5 5 5 5 5 5 5 5 5 5 5 5 4 4 4 4 4 4 4 4 4 4 4 4
4 4 4 4 4 4 4 4 4 4 4 4 4 4 4 4 4 4 4 4 4 4 4 4 4 4 4 4 4 4 4 4 4 4 4 4 4 4 4 4 4 4 3
3 3 3 3 3 3 3 3 3 3 3 3 3 3 3 3 3 3 3 4 4 4 4 4 4 4 4 4 4 4 4 4 4 4 4 4 4 4 4 3 3 3 3
Wind_Speed
6 6 5 5 5 4 4 5 4 4 3 4 4 5 5 5 4 4 4 5 5 3 3 3 3 3 2 2 3 3 3 3 3 1 1 0 1 2 2 2 3 3 3
5 5 5 5 5 5 5 5 5 5 4 4 4 4 4 4 4 5 5 5 5 5 4 4 4 3 3 3 3 3 3 3 4 3 1 0 1 2 2 2 2 2 3
3 4 4 4 5 6 6 5 5 5 5 4 4 4 4 4 4 4 5 5 5 5 5 5 5 4 4 3 4 4 3 3 3 3 2 1 0 1 1 0 1 1 2
4 4 4 5 6 6 5 5 5 5 5 5 5 5 5 4 5 4 4 4 4 4 5 6 6 6 6 5 5 4 4 4 3 3 2 1 1 1 2 1 0 1 1
3 4 5 5 4 4 4 5 4 4 5 5 4 4 3 3 4 4 4 4 4 3 3 4 5 6 7 6 5 5 6 4 4 3 3 2 2 2 3 2 2 1 2
3 4 4 3 4 4 4 4 4 4 4 4 4 4 4 3 4 5 4 4 4 4 4 4 4 5 7 8 8 8 8 7 7 5 4 4 5 4 3 3 3 2 2
3 3 3 3 4 4 4 4 4 5 4 4 4 4 4 5 5 5 6 4 4 4 4 4 3 4 6 5 6 6 7 8 9 8 7 7 6 6 6 5 4 4 4
3 2 3 3 3 3 3 4 4 4 4 4 4 4 4 4 5 5 6 4 4 4 5 5 5 4 4 6 5 4 4 5 6 6 7 7 7 7 8 7 6 3 1
3 3 3 3 4 3 4 4 4 4 4 4 5 5 4 5 6 6 4 3 3 3 3 4 5 5 6 6 6 5 5 4 6 7 8 7 8 8 8 4 4 3 2
3 4 3 4 4 5 5 4 3 4 4 4 4 5 5 5 6 6 5 3 3 3 2 3 5 6 6 7 6 6 7 6 4 4 4 5 5 6 9 8 7 5 3
3 3 3 3 4 5 4 3 3 4 4 4 4 4 4 5 6 6 6 4 4 4 3 3 4 6 6 7 7 6 8 6 5 5 4 3 2 3 5 6 7 6 5
2 1 2 3 3 3 3 3 3 3 4 4 4 3 3 4 5 6 7 6 5 4 4 4 4 5 6 7 6 6 7 5 4 4 3 4 4 4 4 5 7 8 7
1 2 2 3 3 3 3 3 2 3 4 4 4 4 3 2 3 6 7 7 7 4 4 5 5 5 4 4 6 6 5 4 4 4 5 6 5 5 4 3 4 4 4
2 2 2 2 3 3 3 3 3 4 4 4 4 4 4 3 3 3 4 4 4 4 2 2 3 3 2 3 3 3 3 4 5 5 5 5 3 3 3 4 4 3 3
1 2 2 2 2 2 2 3 4 5 6 6 6 5 5 5 6 7 5 4 4 4 3 1 1 1 1 1 1 2 2 3 4 4 4 4 4 4 4 3 3 3 4
1 2 2 2 2 2 2 2 3 4 5 6 6 6 5 6 6 6 7 7 7 7 4 3 3 3 4 3 3 3 3 4 4 4 5 5 5 5 4 3 3 4 6
1 2 2 2 2 2 2 3 3 3 3 4 6 6 6 6 6 6 7 6 6 7 4 4 4 5 4 4 4 4 4 4 3 3 4 5 5 5 5 5 5 5 5
2 2 2 2 2 3 3 3 3 3 3 3 4 5 6 6 5 6 6 4 2 4 4 5 5 5 4 4 4 4 4 3 3 3 3 4 4 5 5 5 5 6 6
2 2 2 2 2 3 3 3 3 4 4 3 3 3 4 5 4 5 5 4 5 5 5 5 5 5 5 5 5 4 4 4 4 4 4 5 5 5 5 5 5 7 7
3 4 3 3 3 3 3 3 4 4 4 4 4 4 2 1 2 3 3 4 5 5 5 6 5 6 5 5 5 5 4 4 5 5 5 5 5 6 6 7 6 6 6
3 4 4 3 3 3 3 3 4 4 4 4 4 4 4 4 4 4 4 5 5 6 6 6 6 6 5 5 5 6 6 5 5 5 5 5 5 6 6 6 7 7 6
3 4 4 4 4 3 3 3 4 4 5 5 4 4 5 4 4 4 4 4 5 5 5 5 5 5 5 5 6 6 6 6 6 6 6 6 6 6 6 6 6 6 6
3 4 4 4 4 4 4 4 4 4 4 4 4 3 3 4 4 4 5 4 4 4 4 5 5 5 5 5 6 6 6 7 7 6 6 6 6 6 6 7 8 8 8
3 4 4 4 4 4 4 4 4 4 5 5 4 4 4 4 5 5 5 4 4 4 4 4 5 6 7 6 6 7 7 7 7 6 7 6 6 6 6 6 7 8 8
3 4 4 4 4 4 4 4 4 4 4 4 4 4 4 4 5 5 4 4 4 4 5 4 4 6 7 7 7 7 9 10 9 7 6 6 7 7 6 7 7 7 8
4 5 4 4 4 4 4 4 4 4 4 4 4 4 4 4 4 4 4 4 4 4 5 4 5 6 7 8 9 9 10 9 9 9 7 6 7 7 7 6 8 8 8
Wind_Direction
187 188 191 193 191 184 184 194 196 191 186 187 191 191 192 193 189 184 193 185 182 193 194 183 194 176 163 168 153 143 137 134 151 229 253 172 147 157 149 173 183 176 178
191 186 191 188 184 187 194 199 190 190 193 192 184 186 193 198 191 188 195 190 186 195 200 187 199 179 174 172 164 163 159 149 146 162 200 170 194 190 166 170 182 194 204
177 177 184 186 188 196 201 198 194 195 195 193 182 186 193 196 197 200 193 188 189 198 196 193 198 176 184 182 176 172 167 154 138 149 179 188 173 169 122 167 168 198 216
174 180 194 199 194 196 197 194 193 191 192 196 194 195 202 199 196 197 190 186 193 201 200 198 196 191 194 186 181 179 165 150 145 147 161 178 181 176 143 168 254 293 263
179 189 206 206 197 193 190 195 196 190 194 193 188 192 196 198 200 190 188 187 188 199 208 203 197 194 193 187 183 181 168 164 161 163 171 172 189 182 198 192 194 245 295
189 208 214 202 200 202 200 193 186 190 192 182 183 185 192 209 206 197 186 189 189 191 205 215 212 201 203 197 192 185 178 174 178 177 186 196 208 203 187 179 168 162 257
205 220 208 201 206 211 206 193 193 195 190 192 194 186 198 213 203 197 196 183 190 196 200 205 210 204 195 194 204 199 197 198 189 182 188 203 200 199 181 183 192 194 216
206 213 210 202 209 207 198 204 210 203 195 196 199 197 201 223 218 209 200 185 194 203 200 196 194 203 200 189 184 190 205 215 210 199 202 208 204 196 189 190 190 187 231
217 221 222 202 200 200 208 214 211 201 205 205 197 195 203 230 227 216 195 174 189 207 208 195 189 199 211 189 179 193 210 230 225 217 217 213 211 204 185 155 159 166 226
235 233 233 216 203 209 217 217 211 200 205 202 206 205 206 220 224 215 196 176 191 213 221 221 212 206 207 196 189 195 210 222 209 212 218 221 212 209 197 188 186 186 193
251 245 242 234 223 220 220 220 213 206 199 204 210 217 216 219 222 214 203 187 196 204 218 230 236 227 218 211 204 207 220 210 192 195 202 211 209 205 203 200 193 187 192
254 241 257 258 244 231 214 220 210 197 200 208 208 224 235 230 217 216 212 210 197 194 215 224 230 230 230 225 217 220 219 205 185 186 198 215 219 220 217 206 203 204 209
272 252 244 255 250 230 209 218 226 210 205 211 206 218 235 237 232 226 218 212 204 203 217 219 225 230 233 229 221 216 209 193 184 195 213 224 224 219 203 197 202 204 224
256 261 257 256 259 245 224 215 215 217 215 215 214 221 228 229 231 228 217 213 210 218 222 213 215 218 221 228 227 222 211 201 201 212 223 226 212 198 202 201 206 204 218
282 281 277 261 251 251 244 229 224 226 214 212 215 213 212 227 235 216 199 207 203 202 173 150 157 183 222 241 236 228 220 214 220 221 221 224 217 211 218 207 198 195 210
289 282 277 277 272 251 240 274 267 251 249 235 228 220 227 231 234 222 217 216 208 190 170 194 214 212 219 228 228 239 233 230 230 225 223 224 222 220 222 214 205 207 221
266 279 274 259 254 253 248 242 264 290 277 259 252 243 233 232 233 226 220 211 199 181 188 206 215 219 222 223 225 228 235 235 227 226 227 226 224 223 218 217 215 219 228
290 283 285 265 253 253 250 246 238 234 252 269 269 252 242 239 238 232 212 183 195 195 206 213 219 221 222 224 227 231 236 235 225 227 233 230 224 222 223 223 222 222 227
286 287 287 285 273 263 267 258 247 242 242 250 274 278 263 249 236 224 195 197 208 217 219 222 223 220 223 224 227 228 225 227 228 227 232 229 222 220 225 228 229 230 230
281 283 286 280 281 277 270 265 255 244 240 242 246 253 251 241 237 235 225 221 220 224 223 223 224 223 222 224 224 222 222 227 229 230 235 233 226 222 227 229 227 229 234
278 278 281 278 270 270 267 259 256 247 242 243 248 248 234 229 231 233 235 232 229 230 229 226 223 221 222 222 224 223 224 230 230 232 234 238 232 229 229 229 231 232 237
277 276 274 271 269 263 264 264 258 252 249 250 258 255 244 240 238 238 235 239 243 241 233 226 224 220 216 217 220 223 228 234 236 234 234 238 240 236 232 229 230 231 232
280 281 281 281 280 280 275 270 265 253 250 250 251 254 251 249 250 245 240 236 237 241 243 233 226 226 224 219 216 218 227 233 232 230 233 237 239 240 234 233 232 232 232
281 278 277 278 278 274 274 274 272 267 254 249 249 248 248 251 256 256 249 245 239 241 240 238 233 229 229 229 228 229 233 237 234 229 230 236 241 243 242 239 235 233 233
275 275 273 273 273 274 275 275 275 275 274 263 258 258 257 257 259 258 254 249 242 240 240 237 237 231 231 232 236 239 244 246 245 241 234 233 241 240 242 243 241 239 237
268 269 268 271 272 272 271 271 271 271 267 269 265 259 257 260 263 260 255 251 250 249 247 240 236 237 238 236 241 247 249 249 250 246 238 234 239 243 242 243 243 238 235
Height
1530 1531 1533 1533 1535 1536 1536 1537 1538 1539 1540 1541 1542 1542 1543 1544 1544 1545 1545 1546 1546 1546 1546 1546 1546 1547 1547 1547 1548 1548 1548 1548 1548 1548 1548 1548 1548 1548 1548 1548 1548 1548 1547
1528 1529 1530 1531 1532 1533 1534 1535 1536 1536 1537 1539 1539 1540 1541 1541 1542 1543 1543 1544 1544 1544 1544 1545 1545 1545 1545 1546 1546 1546 1546 1547 1547 1547 1547 1547 1547 1547 1547 1547 1547 1547 1547
1526 1527 1528 1529 1530 1531 1531 1533 1533 1534 1535 1536 1537 1537 1538 1539 1539 1540 1541 1541 1542 1542 1543 1543 1543 1543 1543 1544 1544 1544 1545 1545 1546 1546 1546 1546 1546 1546 1546 1546 1546 1546 1546
1524 1525 1525 1526 1527 1528 1529 1530 1530 1531 1532 1533 1534 1534 1535 1536 1537 1537 1538 1539 1539 1539 1540 1540 1541 1541 1541 1542 1542 1543 1543 1543 1544 1544 1544 1544 1545 1545 1545 1545 1545 1545 1544
1521 1522 1522 1523 1524 1525 1526 1527 1528 1529 1529 1530 1531 1531 1532 1533 1533 1534 1535 1536 1536 1536 1537 1537 1538 1538 1539 1539 1540 1540 1541 1541 1541 1541 1542 1542 1542 1542 1542 1543 1543 1543 1543
1519 1519 1520 1521 1521 1522 1523 1524 1525 1525 1526 1527 1527 1528 1529 1529 1530 1531 1532 1532 1533 1533 1534 1534 1535 1535 1536 1537 1537 1538 1538 1538 1538 1538 1539 1539 1539 1540 1540 1540 1541 1540 1540
1516 1516 1517 1517 1518 1519 1520 1521 1521 1522 1523 1523 1524 1525 1525 1526 1527 1528 1528 1529 1529 1530 1530 1531 1531 1532 1533 1533 1534 1534 1535 1535 1536 1536 1536 1536 1536 1537 1537 1538 1538 1537 1537
1513 1513 1514 1514 1514 1515 1516 1516 1517 1518 1519 1519 1520 1520 1521 1522 1523 1523 1524 1524 1525 1526 1527 1527 1528 1528 1529 1530 1530 1530 1531 1531 1532 1532 1533 1533 1534 1534 1534 1535 1535 1535 1535
1509 1509 1510 1510 1511 1511 1512 1512 1513 1514 1514 1515 1516 1516 1517 1518 1519 1520 1520 1520 1521 1521 1522 1523 1524 1524 1525 1526 1526 1526 1527 1527 1528 1529 1529 1530 1530 1531 1531 1531 1531 1531 1531
1506 1506 1506 1507 1507 1507 1507 1508 1509 1509 1510 1511 1511 1512 1513 1514 1514 1515 1516 1516 1516 1517 1518 1519 1519 1520 1520 1521 1521 1522 1522 1523 1524 1524 1525 1525 1526 1526 1527 1527 1527 1528 1527
1503 1503 1503 1503 1503 1503 1503 1504 1504 1505 1505 1506 1507 1507 1508 1509 1510 1511 1512 1512 1512 1512 1513 1513 1514 1515 1516 1517 1517 1517 1518 1519 1519 1520 1520 1521 1521 1522 1522 1523 1523 1524 1524
1500 1499 1499 1499 1499 1499 1499 1499 1499 1500 1500 1501 1502 1502 1504 1505 1506 1506 1507 1507 1508 1508 1508 1509 1509 1510 1511 1512 1512 1512 1513 1514 1515 1515 1515 1516 1516 1517 1518 1518 1519 1519 1520
1496 1495 1495 1495 1495 1495 1495 1495 1495 1495 1495 1496 1496 1497 1498 1500 1501 1502 1502 1503 1503 1504 1504 1504 1505 1505 1506 1506 1507 1508 1508 1509 1509 1509 1510 1510 1511 1512 1513 1513 1514 1514 1515
1492 1491 1491 1491 1490 1490 1490 1490 1490 1490 1491 1491 1492 1492 1493 1495 1496 1497 1497 1498 1499 1499 1499 1500 1500 1500 1501 1501 1502 1502 1503 1503 1504 1504 1505 1505 1506 1507 1507 1508 1508 1508 1509
1489 1488 1487 1487 1486 1485 1485 1485 1485 1486 1486 1487 1487 1488 1488 1489 1491 1492 1492 1493 1494 1494 1494 1495 1495 1495 1495 1495 1496 1497 1497 1498 1498 1499 1499 1500 1500 1501 1501 1502 1502 1503 1503
1485 1484 1484 1483 1482 1481 1481 1481 1481 1482 1482 1482 1483 1484 1484 1485 1486 1487 1488 1488 1489 1489 1489 1489 1489 1489 1489 1489 1490 1490 1491 1492 1492 1493 1493 1494 1494 1495 1495 1496 1496 1497 1497
1482 1481 1480 1479 1479 1478 1477 1476 1476 1477 1477 1478 1478 1479 1479 1480 1481 1482 1482 1483 1483 1484 1483 1483 1483 1484 1484 1484 1484 1485 1485 1486 1486 1487 1487 1488 1488 1489 1489 1490 1490 1490 1491
1478 1477 1476 1475 1475 1474 1473 1473 1472 1472 1472 1472 1473 1473 1474 1474 1475 1476 1477 1477 1476 1477 1477 1477 1478 1478 1478 1479 1479 1479 1480 1480 1480 1480 1481 1481 1482 1483 1483 1483 1483 1484 1484
1474 1473 1472 1471 1470 1470 1469 1468 1468 1468 1467 1467 1467 1468 1468 1469 1469 1470 1470 1470 1470 1470 1471 1471 1472 1472 1472 1473 1473 1473 1474 1474 1474 1474 1474 1475 1475 1476 1476 1477 1477 1478 1479
1470 1469 1468 1467 1466 1465 1464 1463 1463 1462 1462 1462 1462 1462 1462 1463 1462 1463 1464 1464 1464 1465 1465 1466 1466 1466 1466 1467 1467 1467 1467 1467 1467 1468 1468 1468 1469 1469 1469 1470 1471 1471 1471
1466 1465 1464 1462 1461 1460 1459 1458 1458 1458 1457 1457 1457 1457 1457 1457 1457 1457 1458 1458 1458 1459 1459 1459 1460 1460 1460 1461 1461 1461 1461 1461 1461 1461 1461 1461 1462 1462 1463 1463 1464 1464 1465
1461 1460 1458 1457 1456 1455 1454 1454 1453 1453 1452 1452 1452 1452 1452 1452 1452 1452 1452 1452 1452 1453 1453 1453 1453 1454 1454 1454 1455 1455 1454 1454 1455 1455 1455 1455 1455 1455 1456 1456 1457 1457 1457
1456 1455 1454 1452 1451 1450 1449 1449 1448 1447 1447 1447 1446 1446 1446 1446 1446 1446 1446 1446 1446 1446 1446 1447 1447 1447 1448 1448 1448 1448 1448 1448 1448 1448 1448 1448 1449 1449 1449 1449 1449 1449 1450
1451 1450 1449 1447 1446 1445 1444 1443 1443 1442 1442 1441 1441 1441 1441 1440 1440 1440 1440 1440 1440 1440 1440 1440 1440 1440 1441 1441 1441 1441 1441 1442 1442 1442 1442 1442 1441 1442 1442 1442 1442 1442 1442
1446 1445 1444 1442 1441 1440 1439 1438 1438 1437 1436 1436 1436 1435 1435 1435 1434 1434 1434 1433 1433 1433 1433 1433 1433 1433 1434 1434 1434 1434 1434 1434 1435 1435 1434 1434 1434 1434 1434 1434 1434 1434 1435
1441 1440 1438 1437 1436 1435 1434 1433 1432 1432 1431 1431 1430 1430 1429 1429 1428 1428 1427 1427 1427 1427 1427 1427 1427 1427 1427 1426 1426 1427 1427 1427 1427 1427 1427 1427 1426 1426 1427 1427 1427 1427 1427